Weather History for KEST - February, 2013

Change the Weather History Date:

Wednesday, February 20, 2013

  Actual Average Record
Temperature  
Mean Temperature 7 °F 22 °F  
Max Temperature 19 °F 31 °F - ()
Min Temperature -5 °F 13 °F - ()
Degree Days  
Heating Degree Days 58 43  
Month to date heating degree days 874 917  
Since 1 July heating degree days 5268 5588  
Cooling Degree Days 0 0  
Month to date cooling degree days 0 0  
Year to date cooling degree days 0 0  
Moisture  
Dew Point -2 °F    
Average Humidity 66    
Maximum Humidity 82    
Minimum Humidity 49    
Precipitation  
Precipitation 0.00 in 0.01 in - ()
Month to date precipitation 0.43 0.25  
Sea Level Pressure  
Sea Level Pressure 30.45 in    
Wind  
Wind Speed 8 mph (NE)    
Max Wind Speed 16 mph    
Max Gust Speed 18 mph    
Visibility 10 miles    
Events      
T = Trace of Precipitation, MM = Missing Value Source: NWS Daily Summary

Daily Weather History Graph

Daily Weather History Graph

Search for Another Location

Airport or City:

Trip Planner

Search our weather history database for the weather conditions in past years. The results will help you decide how hot, cold, wet, or windy it might be!

Date:

Astronomy

Feb. 20, 2013 Rise Set
Actual Time 7:09 AM CST 5:56 PM CST
Civil Twilight 6:40 AM CST 6:25 PM CST
Nautical Twilight 6:07 AM CST 6:59 PM CST
Astronomical Twilight 5:34 AM CST 7:32 PM CST
Moon 1:13 PM CST (2/20) 3:35 AM CST (2/20)
Length of Visible Light 11h 45m
Length of Day
10h 47m
Waxing Gibbous, 76% of the Moon is Illuminated
Feb 20
Waxing Gibbous
Feb 25
Full
Mar 4
Last Quarter
Mar 11
New
Mar 19
First Quarter

Hourly Weather History & Observations

Time (CST) Temp. Windchill Dew Point Humidity Pressure Visibility Wind Dir Wind Speed Gust Speed Precip Events Conditions
12:52 AM -2.9 °F -18.8 °F -9.9 °F 72% 30.48 in 10.0 mi NW 9.2 mph - N/A   Clear
1:52 AM -4.0 °F -20.2 °F -9.9 °F 76% 30.48 in 10.0 mi NW 9.2 mph - N/A   Clear
2:52 AM -4.0 °F -19.0 °F -9.9 °F 76% 30.47 in 10.0 mi NNW 8.1 mph - N/A   Clear
3:52 AM -4.0 °F -19.0 °F -9.9 °F 76% 30.47 in 10.0 mi North 8.1 mph - N/A   Clear
4:52 AM -4.0 °F -16.3 °F -9.9 °F 76% 30.48 in 10.0 mi North 5.8 mph - N/A   Clear
5:52 AM -5.1 °F -21.5 °F -9.9 °F 80% 30.46 in 10.0 mi North 9.2 mph - N/A   Clear
6:52 AM -5.1 °F -19.1 °F -11.0 °F 76% 30.48 in 10.0 mi North 6.9 mph - N/A   Clear
7:52 AM -4.0 °F -14.6 °F -9.9 °F 76% 30.49 in 10.0 mi NNW 4.6 mph - N/A   Clear
8:52 AM -0.0 °F -11.6 °F -8.0 °F 69% 30.51 in 10.0 mi North 5.8 mph - N/A   Clear
9:52 AM 3.0 °F -6.4 °F -5.1 °F 69% 30.51 in 10.0 mi NNE 4.6 mph - N/A   Clear
10:52 AM 5.0 °F -5.6 °F -4.0 °F 66% 30.48 in 10.0 mi ENE 5.8 mph - N/A   Clear
11:52 AM 10.0 °F -0.9 °F -2.0 °F 58% 30.48 in 10.0 mi NE 6.9 mph - N/A   Clear
12:52 PM 12.9 °F 6.9 °F -0.9 °F 54% 30.48 in 10.0 mi ESE 3.5 mph - N/A   Clear
1:52 PM 16.0 °F 6.3 °F 1.9 °F 54% 30.44 in 10.0 mi ESE 6.9 mph - N/A   Clear
2:52 PM 17.1 °F 6.6 °F 3.0 °F 54% 30.41 in 10.0 mi ENE 8.1 mph - N/A   Clear
3:52 PM 19.0 °F 9.0 °F 3.9 °F 52% 30.40 in 10.0 mi ENE 8.1 mph - N/A   Clear
4:52 PM 18.0 °F 7.7 °F 5.0 °F 57% 30.42 in 10.0 mi East 8.1 mph - N/A   Clear
5:52 PM 17.1 °F 5.0 °F 6.1 °F 62% 30.40 in 10.0 mi ENE 10.4 mph - N/A   Clear
6:52 PM 15.1 °F 3.3 °F 7.0 °F 70% 30.39 in 10.0 mi NE 9.2 mph - N/A   Clear
7:52 PM 14.0 °F -1.4 °F 7.0 °F 74% 30.38 in 10.0 mi ENE 15.0 mph - N/A   Clear
9:52 PM 12.0 °F -0.4 °F 6.1 °F 77% 30.39 in 10.0 mi ENE 9.2 mph - N/A   Clear
10:52 PM 10.9 °F -2.6 °F 6.1 °F 81% 30.39 in 10.0 mi ENE 10.4 mph - N/A   Clear
11:52 PM 10.9 °F -1.8 °F 7.0 °F 84% 30.38 in 10.0 mi ENE 9.2 mph - N/A   Scattered Clouds